Regional Weather Roundup
Issued by NWS Cleveland, OH

Home | Current Version | Previous Version | Graphics & Text | Print | Product List | Glossary On
Versions: 1 2 3 4 5 6 7 8 9 10 11 12 13 14 15 16 17 18 19 20 21 22 23 24 25 26 27 28 29 30 31 32 33 34 35 36 37 38 39 40 41 42 43 44 45 46 47 48 49 50
494
ASUS41 KCLE 241102
RWRCLE
OHIO REGIONAL WEATHER ROUNDUP
NATIONAL WEATHER SERVICE CLEVELAND, OH
700 AM EDT TUE MAY 24 2016

NOTE: "FAIR" INDICATES FEW OR NO CLOUDS BELOW 12,000 FEET WITH NO
SIGNIFICANT WEATHER AND/OR OBSTRUCTIONS TO VISIBILITY.

OHZ001>008-015>018-024>027-034-035-043-044-241200-
   NORTHWEST OHIO

CITY           SKY/WX    TMP DP  RH WIND       PRES   REMARKS
DEFIANCE       CLEAR     49  45  86 CALM      30.05R
FINDLAY        CLEAR     53  45  74 S3        30.05R
TOLEDO EXPRESS CLEAR     48  47  96 CALM      30.04R
TOLEDO EXEC    CLEAR     55  47  74 SW5       30.05R
LIMA           CLEAR     56  47  71 S6        30.07R
$$

OHZ009>014-019>023-028>033-038-089-241200-
   NORTHEAST OHIO

CITY           SKY/WX    TMP DP  RH WIND       PRES   REMARKS
CLE-HOPKINS    CLEAR     53  47  79 S3        30.07R
CLE-LAKEFRONT  CLEAR     58  47  66 S8        30.03R
CUY CO. ARPT   CLEAR     52  48  87 CALM      30.05
LORAIN-ELYRIA  CLEAR     52  46  80 SW5       30.06R
ASHTABULA      SUNNY     49  46  90 CALM      30.05R
AKRON-CANTON   CLEAR     53  46  77 SW5       30.07R
WOOSTER        CLEAR     50  48  93 CALM      30.07R FOG
MANSFIELD      CLEAR     51  48  89 S6        30.07R
YOUNGSTOWN     SUNNY     50  47  89 E3        30.05R
$$

OHZ042-051>053-060>062-070>072-077>081-241200-
  SOUTHWEST OHIO

CITY           SKY/WX    TMP DP  RH WIND       PRES   REMARKS
CINC-COVINGTON PTCLDY    52  50  93 CALM      30.09R
CINC-LUNKEN    CLEAR     49  49 100 N3        30.11R
HAMILTON       CLEAR     51  50  96 CALM      30.10R FOG
DAYTON         CLEAR     53  49  86 SW6       30.10R
WRIGHT-PAT AFB NOT AVBL
DAYTON GENERAL CLEAR     56  48  74 CALM      30.08R
WILMINGTON     CLEAR     53  50  89 S3        30.10R
$$

OHZ036-037-039>041-045>050-054>059-063>069-073>076-082>088-241200-
  CENTRAL AND SOUTHEAST OHIO

CITY           SKY/WX    TMP DP  RH WIND       PRES   REMARKS
COLUMBUS       CLEAR     52  50  93 CALM      30.08R
OSU AIRPORT    CLEAR     53  50  89 CALM      30.08R
BOLTON FIELD   NOT AVBL
RICKENBACK AFB NOT AVBL
NEWARK         CLEAR     50  48  93 CALM      30.08R FOG
MARION         CLEAR     51  48  89 CALM      30.08R FOG
LANCASTER      CLEAR     50  49  96 CALM      30.09R
ZANESVILLE     CLEAR     52  48  86 CALM      30.08R
NEW PHILLY     CLEAR     52  48  86 CALM      30.08R
$$




USA.gov is the U.S. government's official web portal to all federal, state and local government web resources and services.